Dewpoint
55 54 53 52 52 52 52 52 52 52 51 51 51 51 50 51 51 49 47 48 44 40 38 39 39 36 37 35 34 34 34 38 40 34 32 35 36 37 35 32 27 22 21 23 24 27 33 36 37 39 43 47 49 52
55 54 52 52 52 52 52 52 52 52 51 51 51 50 50 50 52 51 46 49 48 43 40 41 42 41 41 39 37 36 33 35 40 37 35 38 36 38 38 32 40 36 37 39 39 38 41 37 41 39 37 42 49 49
54 54 52 51 51 52 52 52 52 52 51 51 51 50 50 51 52 51 47 48 46 42 39 37 39 41 44 43 42 34 31 34 37 44 41 39 36 39 36 36 37 38 41 39 37 40 42 39 35 35 38 38 49 49
54 52 51 51 51 52 52 52 52 52 50 50 50 49 50 51 52 49 46 45 46 43 37 35 39 37 40 41 41 40 35 29 41 45 41 40 37 41 39 40 39 40 42 40 40 42 41 42 44 45 36 39 45 48
53 50 50 50 51 51 52 52 52 51 51 50 50 49 51 51 52 51 50 47 45 43 35 35 38 39 40 38 36 35 34 29 35 40 40 39 41 40 41 41 39 43 39 38 37 41 43 44 45 45 45 36 38 49
52 50 50 51 51 51 52 52 51 51 51 51 51 51 51 51 51 48 45 48 46 45 39 33 39 39 39 37 36 37 36 30 33 41 42 43 45 41 36 35 41 45 46 46 44 46 44 45 45 46 46 45 38 45
50 50 50 50 51 51 52 51 51 51 51 50 51 50 50 50 48 46 41 45 48 45 42 37 36 40 36 36 37 36 39 40 41 42 44 43 44 43 38 35 40 42 43 46 46 46 43 44 44 45 46 46 45 43
49 50 50 50 51 51 51 51 51 50 51 50 50 50 50 50 48 46 45 47 46 44 44 38 34 36 37 36 36 38 41 39 40 40 38 39 40 40 35 40 40 41 42 43 44 45 44 44 44 45 46 46 46 46
49 50 50 50 50 51 51 51 50 51 50 50 51 50 48 47 46 47 48 47 45 43 39 39 30 30 37 38 39 40 39 36 39 37 36 36 37 36 39 40 40 40 42 43 44 45 44 44 44 45 46 47 46 47
49 50 50 50 51 51 51 51 51 50 49 51 49 46 45 48 50 47 43 44 44 42 40 36 37 36 36 37 38 37 38 35 34 37 40 36 38 41 43 42 43 42 41 43 42 43 45 45 46 46 47 48 49 50
49 50 50 50 51 51 50 51 51 49 50 47 47 46 48 50 47 45 42 40 41 38 42 41 38 37 39 35 35 39 36 37 31 37 36 37 34 39 41 41 42 40 39 43 44 46 47 47 47 47 48 49 49 50
49 49 50 50 50 50 51 51 49 48 47 48 50 49 48 45 44 41 40 42 41 41 41 40 38 38 39 41 39 37 36 37 33 40 37 33 38 38 39 39 40 40 42 44 44 45 45 44 45 45 46 46 48 51
49 49 50 50 50 50 51 50 50 50 50 52 49 47 44 44 38 38 34 35 36 45 43 40 37 39 40 40 37 36 34 36 40 34 34 38 39 38 39 39 39 44 44 43 43 43 43 44 44 43 43 45 47 48
48 49 49 50 50 50 50 50 50 50 48 48 47 42 45 44 44 44 43 45 48 46 43 42 40 40 41 40 39 36 37 36 32 30 33 40 38 38 39 39 40 44 43 43 44 43 43 43 42 42 43 43 44 44
49 49 50 50 51 51 51 51 51 49 49 48 47 39 42 45 48 46 44 46 49 49 45 44 43 44 41 38 38 38 35 32 32 31 37 41 39 38 39 36 40 43 42 42 43 44 43 43 42 41 41 42 43 43
49 50 50 51 52 52 51 52 50 51 52 47 45 44 44 43 43 42 42 42 48 50 50 48 44 40 37 38 36 32 31 31 31 40 42 40 38 37 38 36 39 44 43 42 42 43 43 42 41 41 42 41 41 41
49 51 51 51 50 51 50 50 50 50 50 46 45 47 42 41 40 42 41 41 46 44 42 45 37 38 43 36 34 36 32 36 39 41 40 39 36 36 37 36 34 42 43 42 41 41 41 42 41 40 39 40 39 39
48 50 51 51 50 50 50 50 52 51 47 46 39 40 40 40 42 41 43 44 44 44 43 36 34 31 31 30 32 34 34 37 38 37 37 37 35 34 39 32 34 39 43 42 43 42 41 40 39 39 39 39 39 39
47 49 51 51 50 50 53 52 52 47 45 42 42 43 44 43 42 43 44 44 45 45 39 34 32 31 31 34 33 32 32 34 33 28 30 33 28 35 34 33 35 38 43 42 43 45 43 40 40 39 39 39 38 39
50 50 49 49 49 48 51 50 54 47 42 43 43 41 42 41 41 40 38 41 39 38 34 33 33 34 33 34 34 34 35 35 29 25 25 27 30 31 30 33 35 33 34 35 39 39 37 37 41 41 40 40 39 39
51 51 50 48 47 50 52 49 48 48 43 42 44 42 39 42 40 38 36 38 36 36 35 37 36 36 36 37 36 34 33 35 31 27 27 25 31 31 31 32 29 30 31 31 31 31 33 32 33 33 40 39 42 41
53 53 52 51 53 54 51 50 47 48 44 44 44 44 43 42 40 39 38 35 35 36 38 38 37 36 36 32 33 33 34 35 28 27 31 32 29 29 29 29 28 28 29 29 29 28 30 30 31 30 31 33 37 39
54 54 55 56 52 43 37 50 46 48 44 44 44 40 41 41 42 41 37 39 40 40 41 40 39 38 36 34 34 33 31 30 28 26 26 28 29 29 29 28 28 26 26 28 28 27 29 33 32 30 31 31 32 32
54 52 51 49 45 41 49 45 48 46 48 46 44 43 45 46 46 41 35 34 40 43 44 44 42 41 39 34 31 31 33 27 27 28 27 27 26 27 28 27 25 25 27 28 28 28 28 28 32 29 30 31 31 31
46 45 44 39 47 45 46 45 43 43 43 43 43 41 41 46 39 35 34 34 41 41 42 43 44 41 37 34 30 28 27 25 26 26 27 25 25 26 27 27 27 25 26 28 28 27 28 27 27 27 27 29 30 30
40 46 44 46 46 45 45 43 43 43 43 41 43 45 44 41 34 35 37 40 41 41 43 43 35 30 27 28 26 25 25 27 27 27 26 24 24 25 27 26 27 27 27 28 28 28 29 28 27 29 30 31 33 31
43 45 49 50 48 48 47 48 46 44 42 40 42 42 39 33 35 38 42 43 41 42 43 43 40 37 28 26 26 27 26 26 27 27 27 25 25 25 25 24 25 27 27 27 28 30 30 30 30 31 31 32 33 34
48 47 45 46 47 46 43 43 42 40 41 43 41 37 35 33 37 39 40 42 43 43 43 43 42 33 23 23 23 23 23 24 25 25 26 26 29 31 31 32 31 36 32 30 32 34 33 32 33 34 35 34 33 36
48 48 48 46 46 46 44 40 39 40 41 42 39 37 38 40 41 41 41 42 42 42 41 38 34 25 25 25 25 24 25 25 25 24 24 25 27 29 31 31 31 30 32 34 37 38 35 33 35 36 36 36 39 37
49 52 45 45 43 41 42 42 41 41 40 40 40 39 40 40 41 42 42 42 42 41 25 23 23 24 23 24 26 28 29 29 29 28 26 26 28 30 31 31 31 32 33 33 33 33 36 35 36 36 36 36 34 34
50 48 44 45 44 43 39 40 40 39 38 38 39 37 38 39 40 41 42 42 32 25 24 24 25 25 25 27 28 29 29 30 30 30 30 30 31 32 32 32 32 32 32 32 32 33 35 35 36 36 36 35 36 35
49 46 44 42 45 46 45 42 39 38 38 38 37 38 38 37 35 38 39 36 27 25 30 26 27 27 29 31 31 31 33 31 31 30 30 31 31 32 31 32 32 33 33 33 34 34 34 35 36 36 35 34 35 35
47 46 47 47 46 44 44 43 41 41 41 39 39 37 36 34 32 35 39 34 28 26 26 28 30 32 31 32 32 32 33 32 32 33 33 33 34 33 32 31 31 32 34 34 34 34 34 34 35 35 34 34 34 34
Lifted_Index
3 4 5 7 9 10 10 9 7 6 6 7 8 9 9 8 8 8 8 8 8 8 6 4 2 2 2 2 2 2 2 2 2 2 2 1 0 0 1 1 1 2 1 1 0 1 2 2 2 1 1 -0 -1 -2
4 4 6 8 9 10 10 9 7 6 6 7 8 9 9 8 8 8 8 8 8 8 6 4 2 2 1 1 2 2 2 2 3 2 2 1 0 0 1 1 1 1 1 0 -0 1 2 3 3 2 2 1 -0 -1
4 5 7 9 10 10 10 8 7 6 6 7 8 8 9 8 8 8 8 8 9 8 6 4 2 1 1 1 1 2 2 3 3 3 2 1 0 0 1 1 1 0 -0 -1 -0 1 2 3 4 4 3 3 2 2
5 7 9 10 10 10 10 8 6 6 6 7 8 8 9 8 8 8 8 8 8 8 6 4 2 2 1 1 1 2 2 3 3 2 2 1 1 1 1 1 1 0 -0 -1 0 2 3 4 4 5 5 5 4 5
7 8 9 10 9 10 9 8 6 5 6 7 8 8 9 8 8 7 7 7 8 7 5 4 3 2 2 1 1 1 2 2 2 2 2 1 1 1 1 1 1 2 1 1 1 3 4 5 5 6 6 6 5 5
7 8 9 9 9 9 9 8 6 5 5 6 8 8 8 8 7 6 5 6 7 7 5 4 2 2 1 1 1 1 1 2 2 1 1 2 2 2 2 1 2 3 3 3 3 3 4 4 5 6 6 6 6 5
7 8 9 9 9 9 9 7 6 5 5 6 7 8 8 7 7 6 5 6 7 7 6 4 2 1 1 0 0 0 1 1 1 1 1 2 2 2 2 2 3 4 4 4 4 4 4 4 5 6 6 6 6 6
7 8 9 9 9 9 8 6 5 5 5 7 7 7 7 7 6 6 6 7 7 6 5 4 3 2 1 1 0 0 1 1 1 1 2 2 3 3 3 3 4 4 4 4 4 4 4 4 4 4 5 5 6 6
9 9 9 9 9 8 6 5 5 5 6 7 7 6 6 5 5 6 6 7 6 5 4 4 4 3 2 1 1 1 1 2 2 3 3 3 3 3 4 4 4 4 4 4 4 4 4 4 4 3 3 4 5 5
10 10 9 9 8 7 5 5 5 5 6 6 6 5 4 4 5 5 5 4 4 3 3 4 4 4 3 2 2 2 2 2 3 3 4 4 4 4 5 5 5 5 5 5 5 4 5 5 5 4 4 4 5 5
10 10 9 8 7 5 4 4 5 5 6 5 4 3 4 4 4 3 3 2 2 2 2 3 3 4 3 3 3 3 3 3 3 3 4 4 5 5 6 6 6 6 6 6 6 5 6 6 6 6 6 6 6 6
10 9 8 7 6 4 4 4 5 5 5 4 3 3 3 3 2 1 1 1 1 1 1 2 3 3 3 3 3 3 3 3 3 3 4 4 5 5 6 7 6 6 6 7 6 6 7 7 7 7 7 7 7 7
9 8 8 6 4 4 4 4 5 5 4 3 3 2 2 1 1 1 1 0 0 0 1 1 2 3 3 3 3 3 3 3 3 3 3 4 5 5 6 7 6 6 7 7 7 7 7 7 7 7 7 7 7 7
8 8 6 4 3 3 4 4 5 4 3 3 2 1 1 1 0 0 0 0 0 0 1 1 2 2 3 3 3 3 3 3 3 4 4 4 5 6 7 7 6 6 7 8 8 9 9 8 7 7 7 7 6 6
8 7 5 3 3 3 3 4 4 3 2 2 2 1 1 1 0 0 0 0 0 0 1 1 1 2 2 2 3 3 3 3 4 4 4 5 5 6 7 7 7 6 7 8 8 9 10 10 9 8 8 8 7 6
7 5 3 2 2 3 3 3 3 2 2 1 1 1 1 1 1 1 1 1 1 1 1 1 1 1 2 2 3 3 3 3 4 4 4 5 6 7 7 8 7 7 7 7 8 9 10 11 11 11 11 11 9 8
6 4 3 3 3 2 2 2 1 1 1 1 1 1 1 1 1 2 2 2 2 1 1 1 1 1 2 2 3 3 4 4 4 4 5 6 7 7 7 8 8 7 6 7 7 8 9 10 10 11 12 12 12 11
6 5 4 4 3 2 1 1 0 -0 0 1 1 2 2 2 2 2 2 2 2 1 1 2 2 2 2 2 3 4 4 4 5 5 6 7 7 7 8 8 8 7 6 6 6 7 7 8 9 10 11 12 12 13
7 5 4 4 2 1 0 -0 -0 -0 -0 0 1 2 2 2 2 2 2 2 2 2 2 3 3 3 3 3 4 4 5 5 6 6 7 7 8 7 7 8 7 7 6 6 6 6 7 8 8 9 9 10 11 12
4 3 2 2 1 0 -0 -1 -1 -0 -0 0 1 2 2 2 2 2 2 2 2 2 3 3 4 4 4 5 5 5 5 6 6 7 7 7 7 7 7 7 7 7 6 6 6 7 7 8 8 8 9 9 10 11
1 0 0 0 -0 -0 -1 -1 -1 -1 -0 0 1 1 2 2 2 2 3 3 3 3 3 4 4 5 6 6 6 6 6 6 6 7 7 7 7 7 7 7 7 7 7 7 7 7 7 8 8 9 9 9 9 10
-1 -1 -1 -1 -1 -1 -1 -1 -1 -1 -0 -0 0 1 1 1 1 2 2 3 3 3 3 4 4 5 5 6 6 6 6 6 6 7 7 7 7 7 7 7 7 8 8 8 8 8 8 8 8 9 9 9 9 9
-2 -2 -2 -2 -2 -1 -1 -0 -0 -0 -0 0 0 0 0 1 1 1 2 3 3 3 3 3 3 4 4 5 6 6 6 6 6 6 6 6 7 7 7 7 8 8 8 8 8 8 8 8 8 9 9 9 9 9
-2 -2 -2 -2 -1 -1 0 1 1 1 0 0 0 0 1 1 1 2 2 2 3 3 3 3 3 3 4 5 5 6 6 6 6 6 6 6 6 6 7 7 7 7 7 7 8 8 8 8 8 8 9 9 9 9
-1 -1 -0 -0 -0 0 1 1 1 1 1 1 1 1 1 1 2 2 2 3 3 3 3 3 3 3 3 4 5 5 5 5 5 5 5 5 5 5 6 6 6 6 6 6 6 7 7 7 7 7 7 7 7 8
0 0 1 1 1 1 0 0 1 1 0 0 0 0 1 1 2 3 3 3 4 4 4 3 3 3 3 4 4 5 5 5 5 5 5 5 5 5 5 5 5 5 5 5 5 5 6 6 6 6 6 6 6 6
1 1 1 1 1 1 0 -0 0 1 0 -0 -0 0 1 2 3 3 4 4 4 4 3 3 3 3 4 4 4 5 5 5 5 5 5 5 5 5 5 5 5 4 4 4 4 4 4 5 5 5 5 5 5 5
0 1 1 1 0 0 0 0 0 1 0 -0 0 1 2 3 4 4 4 4 4 3 3 3 3 3 4 4 4 5 5 5 5 5 5 5 4 4 4 4 4 4 4 4 3 3 4 4 4 4 4 4 4 4
-0 0 0 0 -0 0 1 1 1 2 1 1 2 3 4 4 4 4 4 4 3 3 4 4 4 5 5 5 5 5 5 5 5 5 5 5 5 4 4 4 4 4 4 3 3 3 3 3 3 3 3 3 3 3
-0 -0 0 0 0 1 1 2 3 3 3 3 4 4 5 5 4 4 3 3 4 4 5 5 6 6 6 6 6 6 6 6 6 6 6 6 5 5 5 4 4 4 4 4 3 3 3 3 3 3 3 3 3 3
0 0 0 1 1 1 2 2 3 4 4 5 5 5 5 4 4 3 3 4 5 6 6 6 6 6 6 6 6 6 7 7 7 7 6 6 6 5 5 5 5 4 4 4 4 4 4 3 3 3 3 3 3 4
0 0 0 0 1 1 1 2 2 3 3 4 4 4 4 4 4 4 4 5 6 6 6 7 6 6 6 6 6 7 7 7 7 6 6 6 6 6 5 5 5 5 5 5 5 4 4 4 4 4 4 4 4 4
0 0 0 0 0 1 1 1 2 2 2 3 4 4 4 4 4 4 5 6 6 6 7 7 7 7 6 6 6 7 7 7 6 6 6 6 6 5 5 5 5 5 5 5 5 5 5 4 4 4 4 4 4 4